GW0207 Weather Reports


Display with metric or nautical units.
time (UTC)temp
F
wind
direction
speed
MPH
gust
MPH
rain 1hr
in
rain 24hr
in
rain mn
in
humidity
%
barometer
mb
20260906040801 73 241 0.0 0.0 0.00 0.23 0.00 97 1010.8
20260906040522 73 241 0.0 0.0 0.00 0.23 0.00 97 1010.7
20260906035801 73 241 0.0 0.0 0.00 0.23 0.23 97 1010.7
20260906035306 73 241 0.0 0.0 0.00 0.23 0.23 97 1010.7
20260906034802 73 241 0.0 0.0 0.00 0.23 0.23 97 1010.8
20260906034302 73 241 0.0 0.0 0.00 0.23 0.23 97 1010.8
20260906033802 73 241 0.0 0.0 0.00 0.23 0.23 97 1010.9
20260906033301 73 241 0.0 0.0 0.00 0.23 0.23 97 1010.9
20260906032804 73 241 0.0 0.0 0.00 0.23 0.23 97 1010.9
20260906032306 73 241 0.0 0.0 0.00 0.23 0.23 97 1010.9
20260906031803 73 241 0.0 0.0 0.00 0.23 0.23 97 1011.0
20260906031303 73 241 0.0 0.0 0.00 0.23 0.23 97 1011.0
20260906030803 73 241 0.0 0.0 0.00 0.23 0.23 97 1011.0
20260906030304 73 241 0.0 0.0 0.00 0.23 0.23 97 1010.9
20260906025803 73 241 0.0 0.0 0.00 0.23 0.23 97 1010.9
20260906025306 74 241 0.0 0.0 0.00 0.23 0.23 97 1010.9
20260906025021 74 241 0.0 0.0 0.00 0.23 0.23 97 1011.0
20260906024304 74 241 0.0 0.0 0.00 0.23 0.23 97 1010.9
20260906023804 74 241 0.0 0.0 0.00 0.23 0.23 97 1011.0
20260906023303 74 241 0.0 0.0 0.00 0.23 0.23 97 1010.9
20260906022803 74 241 0.0 1.0 0.00 0.23 0.23 97 1010.9
20260906022307 74 241 0.0 1.0 0.00 0.23 0.23 97 1010.8
20260906021802 74 199 0.0 0.0 0.00 0.23 0.23 97 1011.0
20260906021304 74 199 0.0 1.0 0.00 0.23 0.23 97 1010.9
20260906020803 74 352 0.0 1.0 0.00 0.23 0.23 97 1011.0
20260906020303 74 199 0.0 1.0 0.00 0.23 0.23 97 1010.9
20260906020026 74 198 0.0 0.0 0.00 0.23 0.23 97 1011.0
20260906015305 74 231 0.0 0.0 0.00 0.23 0.23 97 1011.0
20260906014804 74 231 0.0 0.0 0.00 0.23 0.23 97 1011.1
20260906014303 74 231 0.0 0.0 0.00 0.23 0.23 97 1010.9
20260906013803 74 231 0.0 0.0 0.00 0.23 0.23 97 1010.9
20260906013304 74 231 0.0 0.0 0.00 0.23 0.23 97 1011.0
20260906012803 75 231 0.0 0.0 0.00 0.23 0.23 97 1011.0
20260906012306 75 231 0.0 0.0 0.00 0.23 0.23 97 1010.9
20260906011801 75 231 0.0 0.0 0.00 0.23 0.23 97 1010.9
20260906011522 75 231 0.0 0.0 0.00 0.23 0.23 97 1010.9
20260906010800 75 230 0.0 0.0 0.00 0.23 0.23 97 1010.9
20260906010526 75 230 0.0 0.0 0.00 0.23 0.23 97 1010.9
20260906005801 75 231 0.0 1.0 0.00 0.23 0.23 97 1010.7
20260906005300 75 232 0.0 1.0 0.00 0.23 0.23 97 1010.8
20260906005022 75 232 0.0 1.0 0.00 0.23 0.23 97 1010.6
20260906004301 76 227 0.0 1.0 0.00 0.23 0.23 97 1010.6
20260906003801 76 272 0.0 0.0 0.00 0.23 0.23 97 1010.6
20260906003301 76 310 0.0 0.0 0.00 0.23 0.23 97 1010.5
20260906002801 76 310 0.0 0.0 0.00 0.23 0.23 97 1010.5
20260906002301 76 310 0.0 0.0 0.00 0.23 0.23 97 1010.3
20260906001801 76 310 0.0 0.0 0.00 0.23 0.23 97 1010.2
20260906001304 76 310 0.0 0.0 0.00 0.23 0.23 97 1010.0
20260906000803 76 310 0.0 0.0 0.00 0.23 0.23 97 1009.8
20260906000304 76 310 0.0 1.0 0.00 0.23 0.23 97 1009.7
20260905235804 76 288 0.0 1.0 0.00 0.23 0.23 97 1009.5
20260905235306 76 230 0.0 0.0 0.00 0.23 0.23 97 1009.5
20260905234804 76 230 0.0 0.0 0.00 0.23 0.23 97 1009.3
20260905234303 76 230 0.0 0.0 0.00 0.23 0.23 97 1009.2
20260905233806 76 230 0.0 0.0 0.00 0.23 0.23 97 1009.2
20260905233303 76 230 0.0 0.0 0.00 0.23 0.23 96 1009.3
20260905232803 76 229 0.0 0.0 0.00 0.23 0.23 97 1009.3
20260905232306 76 229 0.0 0.0 0.00 0.23 0.23 97 1009.3
20260905231803 76 229 0.0 0.0 0.00 0.23 0.23 97 1009.3
20260905231303 76 229 0.0 1.0 0.00 0.23 0.23 97 1009.2
20260905230803 76 229 0.0 1.0 0.00 0.23 0.23 97 1009.0
20260905230303 76 166 0.0 0.0 0.00 0.23 0.23 97 1008.8
20260905225803 76 166 0.0 0.0 0.00 0.23 0.23 97 1008.9
20260905225305 76 165 0.0 0.0 0.00 0.23 0.23 97 1009.0
20260905224804 76 165 0.0 1.0 0.00 0.23 0.23 97 1008.8
20260905224303 76 165 0.0 1.0 0.00 0.23 0.23 97 1008.9
20260905223804 75 165 0.0 0.0 0.00 0.23 0.23 96 1008.8
20260905223303 76 165 0.0 0.0 0.00 0.23 0.23 97 1008.8
20260905222803 76 165 0.0 0.0 0.00 0.23 0.23 97 1008.8
20260905222306 75 165 0.0 0.0 0.00 0.23 0.23 97 1008.8
20260905221803 75 165 0.0 0.0 0.00 0.23 0.23 96 1008.9
20260905221304 75 165 0.0 0.0 0.00 0.23 0.23 96 1008.9
20260905221028 75 165 0.0 0.0 0.00 0.23 0.23 97 1008.8
20260905220303 75 171 0.0 0.0 0.00 0.23 0.23 97 1008.8
20260905215805 75 164 0.0 1.0 0.00 0.23 0.23 97 1008.9
20260905215305 75 164 0.0 1.0 0.00 0.23 0.23 96 1008.6
20260905214804 75 164 0.0 0.0 0.00 0.23 0.23 96 1008.7
20260905214304 75 164 0.0 0.0 0.00 0.23 0.23 96 1008.7
20260905213803 75 164 0.0 1.0 0.00 0.23 0.23 96 1008.8
20260905213303 75 164 0.0 1.0 0.00 0.23 0.23 96 1008.7
20260905212803 75 167 0.0 0.0 0.00 0.23 0.23 96 1008.6
20260905212306 74 166 0.0 0.0 0.00 0.23 0.23 96 1008.7
20260905211804 75 166 0.0 0.0 0.00 0.23 0.23 96 1008.7
20260905211531 74 166 0.0 0.0 0.00 0.23 0.23 96 1008.6
20260905211021 74 166 0.0 0.0 0.00 0.23 0.23 96 1008.3
20260905210303 74 166 0.0 1.0 0.00 0.23 0.23 96 1008.3
20260905205804 74 235 0.0 1.0 0.00 0.23 0.23 96 1008.3
20260905205306 74 241 0.0 0.0 0.00 0.23 0.23 96 1008.4
20260905204802 74 241 0.0 0.0 0.00 0.23 0.23 96 1008.4
20260905204303 74 241 0.0 1.0 0.00 0.23 0.23 96 1008.5
20260905203802 74 241 0.0 1.0 0.00 0.23 0.23 96 1008.5
20260905203305 74 242 0.0 1.0 0.03 0.23 0.23 96 1008.6
20260905202804 74 240 0.0 1.0 0.15 0.23 0.23 96 1008.6
20260905202306 74 238 0.0 1.0 0.22 0.23 0.23 96 1008.6
20260905201802 74 239 0.0 1.0 0.23 0.23 0.23 95 1008.9
20260905201302 74 240 0.0 2.0 0.23 0.23 0.23 95 1009.0
20260905200803 74 236 0.0 2.0 0.23 0.23 0.23 95 1009.2
20260905200519 73 313 0.0 1.0 0.23 0.23 0.23 95 1009.1
20260905195803 73 322 0.0 1.0 0.23 0.23 0.23 94 1008.8
20260905195306 73 237 0.0 1.0 0.23 0.23 0.23 94 1008.8
20260905194803 74 241 0.0 3.0 0.23 0.23 0.23 93 1009.0
20260905194304 74 268 1.0 3.0 0.23 0.23 0.23 92 1009.3
20260905193801 75 226 1.0 5.0 0.23 0.23 0.23 90 1009.5
20260905193301 76 227 1.0 5.0 0.20 0.20 0.21 87 1010.0
20260905192800 77 19 2.0 13.0 0.08 0.08 0.09 82 1010.9
20260905192522 79 62 3.0 16.0 0.01 0.01 0.01 77 1010.6
20260905192028 82 86 4.0 16.0 0.00 0.00 0.00 71 1009.9
20260905191301 84 81 4.0 14.0 0.00 0.00 0.00 66 1009.1
20260905190802 88 93 3.0 14.0 0.00 0.00 0.00 62 1008.9
20260905190300 91 52 2.0 10.0 0.00 0.00 0.00 61 1009.1
20260905185802 94 83 0.0 4.0 0.00 0.00 0.00 58 1008.8
20260905185301 94 57 0.0 4.0 0.00 0.00 0.00 57 1008.5
20260905184801 95 283 1.0 2.0 0.00 0.00 0.00 57 1008.0
20260905184303 96 286 1.0 2.0 0.00 0.00 0.00 56 1008.0
20260905184021 96 84 0.0 2.0 0.00 0.00 0.00 55 1008.6
20260905183305 96 11 0.0 2.0 0.00 0.00 0.00 56 1008.3
20260905182757 96 41 0.0 2.0 0.00 0.00 0.00 55 1008.2
20260905182513 95 25 0.0 2.0 0.00 0.00 0.00 56 1008.4
20260905181745 95 26 0.0 2.0 0.00 0.00 0.00 56 1008.6
20260905181245 95 100 0.0 2.0 0.00 0.00 0.00 56 1008.8
20260905180746 95 3 0.0 2.0 0.00 0.00 0.00 57 1008.9
20260905180245 95 10 0.0 2.0 0.00 0.00 0.00 56 1009.0
20260905175743 95 95 1.0 4.0 0.00 0.00 0.00 56 1009.1
20260905175240 95 355 1.0 4.0 0.00 0.00 0.00 57 1009.3
20260905175003 95 35 1.0 3.0 0.00 0.00 0.00 57 1009.5
20260905174235 95 4 0.0 3.0 0.00 0.00 0.00 58 1009.6
20260905173735 94 31 0.0 3.0 0.00 0.00 0.00 58 1009.7
20260905173454 94 353 0.0 3.0 0.00 0.00 0.00 60 1009.9
20260905172733 93 91 0.0 3.0 0.00 0.00 0.00 59 1009.9
20260905172229 93 3 0.0 5.0 0.00 0.00 0.00 60 1010.0
20260905171730 93 297 0.0 5.0 0.00 0.00 0.00 58 1010.0
20260905171229 93 313 0.0 2.0 0.00 0.00 0.00 59 1010.2
20260905170728 93 306 1.0 3.0 0.00 0.00 0.00 58 1010.2
20260905170230 94 12 1.0 4.0 0.00 0.00 0.00 58 1010.2
20260905170210 94 43 1.0 4.0 0.00 0.00 0.00 59 1010.2
20260905165452 94 236 1.0 4.0 0.00 0.00 0.00 59 1010.2
20260905164731 94 357 1.0 3.0 0.00 0.00 0.00 60 1010.3
20260905164230 93 237 0.0 3.0 0.00 0.00 0.00 62 1010.5
20260905163729 92 62 0.0 2.0 0.00 0.00 0.00 62 1010.4
20260905163229 92 159 1.0 2.0 0.00 0.00 0.00 62 1010.4
20260905162729 92 249 1.0 3.0 0.00 0.00 0.00 62 1010.5
20260905162229 91 4 1.0 3.0 0.00 0.00 0.00 64 1010.5
20260905161729 91 60 0.0 3.0 0.00 0.00 0.00 64 1010.6
20260905161228 91 358 0.0 3.0 0.00 0.00 0.00 64 1010.7
20260905160729 91 313 0.0 4.0 0.00 0.00 0.00 67 1010.7
20260905160229 90 88 0.0 4.0 0.00 0.00 0.00 68 1010.9
20260905155729 90 249 0.0 4.0 0.00 0.00 0.00 67 1011.0
20260905155228 90 348 0.0 2.0 0.00 0.00 0.00 68 1011.1
20260905154729 90 0 0.0 2.0 0.00 0.00 0.00 68 1011.1
20260905154229 89 64 0.0 2.0 0.00 0.00 0.00 69 1011.1
20260905153730 89 6 1.0 4.0 0.00 0.00 0.00 69 1011.1
20260905153230 89 124 0.0 4.0 0.00 0.00 0.00 70 1011.2
20260905152729 89 31 0.0 5.0 0.00 0.00 0.00 70 1011.3
20260905152228 89 352 1.0 5.0 0.00 0.00 0.00 68 1011.3
20260905151731 89 256 1.0 3.0 0.00 0.00 0.00 68 1011.3
20260905151231 89 228 1.0 4.0 0.00 0.00 0.00 69 1011.4
20260905150948 89 109 0.0 4.0 0.00 0.00 0.00 70 1011.4
20260905150450 89 20 0.0 2.0 0.00 0.00 0.00 71 1011.3
20260905145732 88 34 0.0 2.0 0.00 0.00 0.00 71 1011.4
20260905145231 88 202 0.0 2.0 0.00 0.00 0.00 72 1011.4
20260905144731 88 339 0.0 3.0 0.00 0.00 0.00 72 1011.5
20260905144231 87 348 0.0 3.0 0.00 0.00 0.00 72 1011.5
20260905143956 88 20 0.0 2.0 0.00 0.00 0.00 73 1011.5
20260905143231 87 29 0.0 4.0 0.00 0.00 0.00 72 1011.5
20260905142952 87 35 0.0 4.0 0.00 0.00 0.00 73 1011.4
20260905142231 87 345 0.0 3.0 0.00 0.00 0.00 74 1011.3
20260905141730 87 50 0.0 4.0 0.00 0.00 0.00 75 1011.2
20260905141231 86 46 0.0 4.0 0.00 0.00 0.00 76 1011.2
20260905140733 86 15 0.0 1.0 0.00 0.00 0.00 77 1011.2
20260905140453 85 31 0.0 1.0 0.00 0.00 0.00 77 1011.2
20260905135731 85 22 0.0 2.0 0.00 0.00 0.00 79 1011.2
20260905135233 85 106 0.0 2.0 0.00 0.00 0.00 79 1011.2
20260905134731 84 14 0.0 1.0 0.00 0.00 0.00 79 1011.2
20260905134231 84 339 0.0 2.0 0.00 0.00 0.00 80 1011.2
20260905133736 83 27 0.0 2.0 0.00 0.00 0.00 80 1011.1
20260905133233 83 50 0.0 1.0 0.00 0.00 0.00 81 1011.3
20260905132949 83 4 0.0 1.0 0.00 0.00 0.00 82 1011.2
20260905132230 83 4 0.0 1.0 0.00 0.00 0.00 82 1011.1
20260905131731 83 31 0.0 1.0 0.00 0.00 0.00 83 1011.2
20260905131229 82 31 0.0 1.0 0.00 0.00 0.00 84 1011.1
20260905130728 81 8 0.0 1.0 0.00 0.00 0.00 85 1011.2
20260905130228 81 24 0.0 2.0 0.00 0.00 0.00 85 1011.2
20260905125729 80 161 0.0 2.0 0.00 0.00 0.00 87 1011.2
20260905125229 80 359 0.0 0.0 0.00 0.00 0.00 87 1011.4
20260905124728 79 359 0.0 1.0 0.00 0.00 0.00 88 1011.3
20260905124227 78 358 0.0 1.0 0.00 0.00 0.00 89 1011.4
20260905123720 78 23 0.0 1.0 0.00 0.00 0.00 90 1011.5
20260905123216 77 22 0.0 1.0 0.00 0.00 0.00 91 1011.4
20260905122709 76 0 0.0 1.0 0.00 0.00 0.00 92 1011.5
20260905122207 76 359 0.0 1.0 0.00 0.00 0.00 92 1011.4
20260905121927 76 35 0.0 1.0 0.00 0.00 0.00 93 1011.3
20260905121206 75 34 0.0 1.0 0.00 0.00 0.00 94 1011.3
20260905120925 75 37 0.0 1.0 0.00 0.00 0.00 94 1011.3
20260905120205 74 48 0.0 1.0 0.00 0.00 0.00 95 1011.4
20260905115923 74 76 0.0 0.0 0.00 0.00 0.00 95 1011.4
20260905115203 74 76 0.0 0.0 0.00 0.00 0.00 96 1011.3
20260905114702 73 76 0.0 0.0 0.00 0.00 0.00 96 1011.2
20260905114201 73 77 0.0 0.0 0.00 0.00 0.00 96 1011.0
20260905113701 72 78 0.0 0.0 0.00 0.00 0.00 96 1011.0
20260905113201 72 78 0.0 0.0 0.00 0.00 0.00 96 1011.0
20260905112701 72 78 0.0 0.0 0.00 0.00 0.00 96 1011.0
20260905112200 72 78 0.0 0.0 0.00 0.00 0.00 96 1010.9
20260905111924 72 78 0.0 0.0 0.00 0.00 0.00 96 1010.9
20260905111201 71 78 0.0 0.0 0.00 0.00 0.00 96 1010.9
20260905110700 72 80 0.0 0.0 0.00 0.00 0.00 96 1010.8
20260905110201 72 81 0.0 0.0 0.00 0.00 0.00 96 1010.8
20260905105700 72 81 0.0 0.0 0.00 0.00 0.00 95 1010.8
20260905105648 72 81 0.0 0.0 0.00 0.00 0.00 95 1010.7
20260905104701 72 81 0.0 0.0 0.00 0.00 0.00 95 1010.6
20260905104201 72 81 0.0 0.0 0.00 0.00 0.00 95 1010.6
20260905103701 72 81 0.0 1.0 0.00 0.00 0.00 95 1010.7
20260905103200 72 81 0.0 1.0 0.00 0.00 0.00 95 1010.5
20260905102701 72 81 0.0 0.0 0.00 0.00 0.00 95 1010.6
20260905102201 72 81 0.0 0.0 0.00 0.00 0.00 95 1010.6
20260905101701 72 81 0.0 0.0 0.00 0.00 0.00 95 1010.5
20260905101200 72 81 0.0 0.0 0.00 0.00 0.00 94 1010.5
20260905100700 72 81 0.0 0.0 0.00 0.00 0.00 94 1010.6
20260905100426 72 81 0.0 0.0 0.00 0.00 0.00 94 1010.6
20260905095701 72 81 0.0 0.0 0.00 0.00 0.00 94 1010.5
20260905095201 72 81 0.0 0.0 0.00 0.00 0.00 93 1010.5
20260905094701 73 81 0.0 0.0 0.00 0.00 0.00 93 1010.4
20260905094200 73 81 0.0 0.0 0.00 0.00 0.00 93 1010.4
20260905093701 73 81 0.0 0.0 0.00 0.00 0.00 93 1010.4
20260905093201 73 81 0.0 0.0 0.00 0.00 0.00 93 1010.5
20260905092701 73 81 0.0 0.0 0.00 0.00 0.00 93 1010.5
20260905092421 73 81 0.0 0.0 0.00 0.00 0.00 92 1010.5
20260905091700 73 81 0.0 0.0 0.00 0.00 0.00 92 1010.5
20260905091201 73 81 0.0 0.0 0.00 0.00 0.00 92 1010.6
20260905090924 74 81 0.0 0.0 0.00 0.00 0.00 92 1010.8
20260905090426 74 81 0.0 0.0 0.00 0.00 0.00 92 1010.8
20260905085701 74 81 0.0 0.0 0.00 0.00 0.00 92 1010.9
20260905085201 74 81 0.0 0.0 0.00 0.00 0.00 92 1010.9
20260905084701 74 81 0.0 0.0 0.00 0.00 0.00 92 1010.9
20260905084201 74 81 0.0 0.0 0.00 0.00 0.00 91 1010.9
20260905083701 74 81 0.0 0.0 0.00 0.00 0.00 91 1011.0
20260905083201 74 81 0.0 0.0 0.00 0.00 0.00 91 1010.9
20260905082701 74 81 0.0 0.0 0.00 0.00 0.00 91 1010.9
20260905082431 74 81 0.0 0.0 0.00 0.00 0.00 91 1011.0
20260905081701 74 81 0.0 0.0 0.00 0.00 0.00 91 1011.0
20260905081420 74 81 0.0 0.0 0.00 0.00 0.00 90 1011.1
20260905080700 74 81 0.0 0.0 0.00 0.00 0.00 90 1011.1
20260905080201 74 81 0.0 0.0 0.00 0.00 0.00 90 1011.1
20260905075920 74 81 0.0 0.0 0.00 0.00 0.00 90 1011.1
20260905075203 74 81 0.0 0.0 0.00 0.00 0.00 90 1011.2
20260905074700 75 81 0.0 0.0 0.00 0.00 0.00 89 1011.2
20260905074200 75 81 0.0 0.0 0.00 0.00 0.00 89 1011.3
20260905073924 75 81 0.0 0.0 0.00 0.00 0.00 89 1011.3
20260905073201 75 81 0.0 0.0 0.00 0.00 0.00 89 1011.2
20260905072701 75 81 0.0 0.0 0.00 0.00 0.00 89 1011.4
20260905072200 75 81 0.0 0.0 0.00 0.00 0.00 89 1011.5
20260905071700 75 81 0.0 0.0 0.00 0.00 0.00 89 1011.6
20260905071201 75 81 0.0 1.0 0.00 0.00 0.00 89 1011.6
20260905070701 75 81 0.0 1.0 0.00 0.00 0.00 89 1011.5
20260905070200 75 81 0.0 0.0 0.00 0.00 0.00 89 1011.6
20260905065701 75 81 0.0 1.0 0.00 0.00 0.00 89 1011.6
20260905065201 75 81 0.0 1.0 0.00 0.00 0.00 89 1011.8
20260905064920 75 81 0.0 0.0 0.00 0.00 0.00 89 1011.8
20260905064201 75 81 0.0 0.0 0.00 0.00 0.00 89 1011.9
20260905063700 75 81 0.0 0.0 0.00 0.00 0.00 90 1011.9
20260905063201 75 81 0.0 0.0 0.00 0.00 0.00 90 1012.0
20260905062703 75 81 0.0 0.0 0.00 0.00 0.00 89 1011.9
20260905062201 75 81 0.0 0.0 0.00 0.00 0.00 89 1012.2
20260905061927 75 81 0.0 0.0 0.00 0.00 0.00 89 1012.3
20260905061200 75 81 0.0 0.0 0.00 0.00 0.00 89 1012.5
20260905060701 75 81 0.0 0.0 0.00 0.00 0.00 89 1012.5
20260905060203 75 81 0.0 0.0 0.00 0.00 0.00 89 1012.5
20260905055704 75 81 0.0 0.0 0.00 0.00 0.00 89 1012.6
20260905055205 75 81 0.0 0.0 0.00 0.00 0.00 89 1012.6
20260905054701 76 81 0.0 0.0 0.00 0.00 0.00 89 1012.7
20260905054202 76 81 0.0 0.0 0.00 0.00 0.00 89 1012.6
20260905053702 76 81 0.0 1.0 0.00 0.00 0.00 89 1012.7
20260905053421 76 81 0.0 1.0 0.00 0.00 0.00 89 1012.9
20260905052701 76 81 0.0 1.0 0.00 0.00 0.00 89 1012.8
20260905052420 76 81 0.0 1.0 0.00 0.00 0.00 89 1012.9
20260905051700 76 81 0.0 1.0 0.00 0.00 0.00 89 1013.1
20260905051202 76 81 0.0 1.0 0.00 0.00 0.00 89 1013.2
20260905050702 76 81 0.0 0.0 0.00 0.00 0.00 89 1013.2
20260905050201 76 81 0.0 0.0 0.00 0.00 0.00 89 1013.3
20260905045701 76 81 0.0 0.0 0.00 0.00 0.00 89 1013.5
20260905045200 76 83 0.0 1.0 0.00 0.00 0.00 89 1013.6
20260905044701 76 57 0.0 2.0 0.00 0.00 0.00 89 1013.6
20260905044201 76 52 0.0 2.0 0.00 0.00 0.00 89 1013.6
20260905044142 76 209 0.0 2.0 0.00 0.00 0.00 89 1013.6
20260905043200 76 109 0.0 2.0 0.00 0.00 0.00 89 1013.6
20260905042703 77 233 0.0 5.0 0.00 0.00 0.00 89 1013.7
20260905042427 77 206 0.0 5.0 0.00 0.00 0.00 89 1013.6
20260905041701 77 80 0.0 2.0 0.00 0.00 0.00 89 1013.7
20260905041203 77 152 0.0 2.0 0.00 0.00 0.00 89 1013.7